Terminal Aerodrome Forecast
Issued by NWS

Home | Current Version | Previous Version | Text Only | Print | Product List | Glossary On
Versions: 1 2 3 4 5 6 7 8 9 10 11 12 13 14 15 16 17 18 19 20 21 22
000
FTUS45 KFGZ 212200 AAB
TAFPRC
TAF AMD
KPRC 212217Z 2122/2218 22008KT P6SM FEW050 SCT100 PROB30 2207/2211
      VRB15G25KT 5SM TSRA BR OVC040CB=

USA.gov is the U.S. government's official web portal to all federal, state and local government web resources and services.